ROMMA est une association bénévole à but non lucratif. Votre soutien est indispensable : ADHERER à ROMMA ou FAIRE un DON

La Ferrière - (38, Isère)

Belledonne - Vallée du Haut Bréda (1000 m)   Longitude: 06° 04' 55" E   Latitude: 45° 18' 16" N Station romma n°33
 

Détail journalier du     <<     >>

Température Precipitation Humidité Pression Vent Dir Rafale Dir. rafale
Heure (°C) (mm) (%) (hPa) (km/h) (km/h)
01:00 9.909910181NO5NO
02:00 9.309910181NO4NO
03:00 9.109910181NO4NO
04:00 9.309910181NO3NO
05:00 9.8099101701NO
06:00 10.409910161NO6NO
07:00 9.90100101606NO
08:00 9.8010010161NO3NO
09:00 11.1010010161NO4NO
10:00 12.809910171NO8NO
11:00 14.109810161NO4NO
12:00 13.209310164N8N
13:00 14.408910163NNE8N
14:00 13.808710163N8N
15:00 12.60.39110151N7N
16:00 13.109210151N5N
17:00 12.409310151N4N
18:00 11.409510151N7N
19:00 10.809610151N5N
20:00 10.309710151N4N
21:00 10.109710152N5N
22:00 9.909810151N2N
23:00 10.00.598101501N
minuit 10.0099101504N

Graphique du 28-10-2019

 

Serveur OMMA